Location: ??????????
(42.1626°N, 44.1160°E)
Time: 14:59:57
(UTC+00:00)

Cosmos 1869 Rocket - Pass Details

Date: 03 March 2021
Orbit: 605 x 633 km, 82.5° (Epoch: 20 April)

Event Time Altitude Azimuth Distance (km) Brightness Sun altitude
Rises 16:34:37 0° 178° (S) 2,853 6.9 -19.0°
Reaches altitude 10° 16:36:50 10° 174° (S) 1,958 6.0 -19.4°
Maximum altitude 16:41:05 61° 95° (E) 699 3.4 -20.2°
Drops below altitude 10° 16:45:26 10° 15° (NNE) 1,990 6.1 -21.0°
Sets 16:47:42 0° 12° (NNE) 2,905 7.0 -21.4°
